Wind_Speed
31 30 29 29 28 30 33 34 39 40 35 37 42 46 48 35 48 44 47 39 37 39 29 30 37 31 27 16 18 27 30 20 27 25 18 24 28 32 32 15 9 15 18 23
32 32 32 31 31 34 36 39 38 38 37 39 45 46 50 36 42 41 42 52 50 31 35 29 31 30 38 37 28 24 24 22 12 13 19 20 24 31 34 35 21 24 11 20
33 33 33 33 33 38 40 41 39 33 39 42 40 44 50 47 42 40 35 28 37 32 44 41 27 30 27 29 30 30 26 28 32 26 12 10 25 32 38 38 27 27 34 35
33 33 34 32 34 37 44 42 44 41 28 45 42 37 43 54 45 39 38 38 40 33 38 41 36 45 43 36 36 32 32 30 33 38 29 28 28 28 30 44 42 27 35 34
30 31 33 33 34 37 40 43 45 22 47 38 38 41 33 43 53 37 37 33 33 35 48 37 18 27 24 23 24 25 31 31 32 45 36 28 30 28 32 27 30 36 34 38
29 30 32 34 36 35 43 47 43 41 33 39 40 40 43 38 34 46 39 41 35 26 29 29 34 27 31 30 24 21 28 26 17 22 24 24 17 42 36 32 29 31 35 33
26 26 31 30 35 32 50 28 40 37 39 24 27 32 31 41 45 36 21 36 30 32 27 25 24 25 24 23 23 22 22 22 24 13 12 7 25 26 29 34 31 25 28 27
22 23 25 26 23 28 30 30 23 26 16 32 35 35 29 29 34 31 40 38 22 24 26 28 27 25 28 30 27 29 28 23 11 12 17 14 19 24 27 26 31 26 18 24
19 21 24 23 29 23 23 25 23 28 30 6 17 25 26 30 32 32 32 29 31 28 30 22 19 14 16 13 22 24 26 36 28 13 7 10 21 24 23 21 33 29 25 24
18 20 21 21 21 26 28 26 24 21 24 27 24 19 30 25 20 18 27 29 23 24 27 26 21 21 20 21 21 18 28 33 35 27 12 14 24 10 15 18 16 14 13 15
21 22 23 22 22 25 26 25 24 22 23 24 32 26 17 36 29 22 13 16 22 26 26 21 20 23 24 22 27 28 30 26 24 19 18 17 20 20 25 22 22 18 11 13
19 20 21 22 22 22 24 23 21 22 23 22 26 30 27 25 24 27 25 14 18 22 19 29 21 20 14 25 21 29 20 27 24 23 25 13 13 18 17 18 19 13 12 13
18 19 18 21 22 22 23 21 21 21 23 24 27 28 25 32 32 30 25 24 18 13 20 19 19 18 19 26 24 18 27 25 26 22 27 26 21 20 20 16 16 15 11 11
16 16 18 20 22 22 21 20 19 19 20 18 22 19 22 19 28 24 20 21 24 21 26 21 26 30 22 23 25 24 30 26 25 26 22 17 23 20 17 16 18 14 11 12
19 18 16 19 17 18 19 18 17 17 18 7 6 12 15 19 25 28 26 24 23 25 27 27 33 35 32 24 25 27 29 27 26 25 23 23 15 15 17 16 14 14 13 11
18 18 17 19 18 17 16 17 16 19 16 18 26 21 21 17 18 22 25 19 20 26 29 24 29 35 29 23 35 31 24 18 13 19 15 18 15 16 15 16 16 15 14 13
18 17 18 20 21 20 18 11 12 19 20 19 19 23 17 19 23 24 24 23 22 26 30 36 35 33 33 27 18 18 14 15 17 17 15 17 17 15 17 18 17 16 15 13
19 18 17 17 18 21 24 19 10 16 12 21 6 9 16 17 18 17 19 22 28 28 30 29 41 33 36 25 27 16 17 18 19 18 15 11 12 17 16 17 16 15 13 12
24 19 16 17 23 24 22 26 16 17 19 7 14 19 19 14 12 14 21 19 21 18 21 21 28 29 13 13 19 19 18 20 19 20 17 13 11 14 15 14 13 13 12 11
22 21 21 27 16 15 18 16 10 19 22 23 21 13 19 10 13 18 12 11 11 9 13 16 15 18 11 14 14 15 18 17 17 16 15 13 13 11 10 11 12 12 11 9
29 28 24 13 15 15 10 3 4 9 8 14 16 19 15 10 17 15 7 5 5 2 8 9 7 14 20 13 16 19 18 18 17 16 13 12 10 9 10 11 11 10 11 11
28 29 27 18 17 6 6 4 5 5 6 4 8 6 13 16 14 5 6 2 5 4 11 8 5 10 18 20 17 21 23 21 17 13 12 10 9 11 12 12 11 11 10 9
34 30 23 17 12 8 6 7 3 5 6 9 10 11 12 14 7 4 2 4 3 5 9 5 8 14 19 23 22 22 22 19 16 13 11 10 9 9 10 11 11 10 10 9
29 21 15 9 7 6 5 6 13 13 7 10 16 12 9 9 8 3 3 4 4 4 5 3 4 14 19 25 23 20 18 17 15 13 10 9 8 9 10 11 10 10 10 11
17 9 10 5 7 10 11 11 15 11 4 12 17 15 7 11 5 6 5 4 4 5 3 3 7 15 21 25 24 21 18 15 12 9 8 8 8 9 9 9 10 11 11 12
11 7 11 9 13 14 16 16 18 13 10 13 15 9 4 6 5 5 4 3 3 2 3 4 11 16 23 25 23 20 17 13 12 9 9 8 8 9 11 11 11 11 12 13
15 20 17 13 15 12 8 13 15 14 18 18 7 5 5 5 4 4 5 4 4 9 4 8 14 19 24 23 22 19 15 13 10 8 8 10 10 10 11 11 12 12 13 14
Wind_Direction
251 246 245 239 234 231 235 238 238 242 232 220 222 218 220 229 238 233 231 237 246 247 249 250 250 246 246 249 259 256 251 236 233 236 231 228 228 228 215 214 213 223 237 257
252 249 242 239 237 230 231 238 243 232 237 225 227 223 221 231 235 233 235 236 241 242 239 244 246 246 250 253 253 252 246 217 223 233 239 232 226 232 235 232 241 233 215 258
252 249 245 241 236 231 230 234 242 248 231 232 232 230 222 226 232 228 225 228 237 237 241 246 246 241 244 244 246 247 249 229 218 228 221 241 231 242 244 237 225 237 244 251
250 247 244 239 234 229 228 230 239 240 225 224 227 231 234 225 232 230 238 242 237 240 240 240 249 247 248 250 252 251 237 233 236 236 235 247 256 261 260 235 242 223 245 257
249 244 242 240 237 227 227 230 230 225 228 238 234 227 229 231 230 235 235 233 236 240 236 234 254 247 246 243 251 264 240 233 246 247 252 238 240 250 245 254 250 248 256 261
249 244 238 233 229 226 226 231 235 234 257 246 228 232 235 226 229 231 238 236 237 236 247 253 267 275 287 282 285 272 267 272 239 243 226 232 241 232 241 248 254 258 254 271
242 243 237 238 222 227 212 212 221 229 218 217 210 222 238 237 238 240 222 236 235 241 243 245 251 267 263 253 264 255 247 243 226 239 221 227 245 240 239 245 253 260 258 269
235 236 233 231 223 212 221 225 217 221 253 248 235 247 239 241 243 248 252 244 225 236 248 258 265 266 264 264 260 257 260 224 216 196 206 250 246 227 229 239 255 264 258 267
226 231 234 231 224 227 225 228 228 222 230 301 239 229 233 244 249 249 251 245 247 245 243 242 238 233 240 250 249 244 236 230 217 196 204 212 253 241 254 249 262 263 265 264
231 235 233 233 220 225 229 231 232 231 243 251 247 242 226 232 244 250 254 250 231 228 236 231 233 236 235 234 237 221 216 222 221 210 211 244 239 242 205 202 254 279 256 236
233 231 226 222 223 224 228 231 234 233 241 246 247 252 236 237 250 251 242 237 221 229 229 230 222 224 230 232 240 234 227 209 213 208 214 245 239 223 222 248 264 270 246 225
227 227 226 220 218 220 225 226 229 230 235 246 248 256 258 249 237 236 256 243 214 220 220 231 238 248 241 236 232 231 224 223 220 217 221 217 228 241 247 254 257 250 227 218
215 214 218 217 215 219 225 220 220 219 225 243 247 254 259 259 260 269 265 252 272 197 215 231 244 248 245 237 228 241 231 225 224 223 233 246 254 237 238 231 238 239 221 205
225 216 208 209 207 216 220 217 224 225 233 259 260 266 280 259 256 272 289 280 265 231 240 240 254 248 249 248 245 242 244 240 228 245 235 229 226 222 220 230 228 222 213 200
220 213 209 206 205 210 216 217 221 220 221 243 262 273 271 250 255 261 271 271 264 266 270 258 265 253 242 252 250 240 231 243 251 244 238 236 247 229 225 217 220 220 218 228
209 210 210 200 201 206 210 217 227 222 225 238 256 270 271 268 269 262 266 276 248 252 255 270 264 246 236 245 232 243 255 235 229 237 245 223 209 210 205 206 208 216 228 236
200 200 197 197 203 210 209 205 208 229 229 231 266 273 270 268 267 263 258 243 245 254 253 264 261 231 226 220 232 266 228 206 218 213 206 204 214 220 208 206 212 225 235 246
191 182 185 194 204 214 211 193 180 207 218 228 267 273 285 287 288 276 271 236 251 245 244 233 221 213 206 228 235 212 198 202 199 196 208 204 208 210 207 208 218 228 237 240
177 174 182 199 215 218 207 202 168 192 196 238 249 256 281 281 223 188 164 172 177 187 190 189 204 201 201 196 192 195 198 203 202 202 202 207 212 207 206 213 219 227 229 212
182 184 195 204 224 204 220 222 251 190 208 227 242 245 281 268 165 147 142 138 153 163 176 173 185 190 171 183 174 185 183 187 196 204 208 203 198 199 205 205 202 198 204 218
189 202 198 204 179 197 228 240 180 193 220 241 253 265 271 174 146 124 129 104 109 144 176 184 195 214 199 201 175 178 180 180 190 199 203 194 198 207 211 204 202 210 217 228
201 202 202 176 172 198 202 230 217 230 220 215 241 233 171 154 152 94 111 121 174 193 178 185 235 216 196 198 196 186 183 192 194 197 196 197 200 198 197 203 212 216 225 241
166 168 167 171 178 202 213 212 206 219 222 207 178 154 177 183 175 116 154 196 194 160 180 220 226 188 190 193 192 189 189 191 199 196 196 193 192 196 203 208 214 225 235 244
167 161 168 178 205 216 188 215 231 226 245 199 180 171 181 188 175 163 203 203 193 207 228 232 187 179 183 182 187 195 196 194 193 193 189 185 192 200 206 213 223 234 245 256
160 163 188 230 186 173 222 232 209 207 209 193 186 189 190 167 165 192 212 206 225 226 230 197 177 174 177 178 182 187 191 194 194 192 194 203 212 218 224 233 242 249 256 264
169 172 211 226 194 217 225 205 192 193 189 181 191 209 196 182 190 202 214 220 235 277 333 196 172 172 174 177 179 181 189 196 198 206 215 227 238 241 240 244 249 254 262 272
186 215 230 236 207 217 212 202 192 194 182 185 185 173 179 167 200 208 217 228 298 329 280 177 167 166 167 171 177 187 195 200 206 218 232 241 247 245 243 247 253 261 269 276
Height
2974 2977 2981 2987 2991 2996 2997 3002 3002 3001 3009 3014 3012 3015 3020 3026 3028 3034 3036 3039 3043 3046 3051 3053 3055 3054 3056 3059 3061 3061 3062 3064 3065 3064 3065 3065 3067 3069 3073 3073 3073 3074 3075 3069
2964 2968 2972 2978 2982 2986 2991 2991 2992 2994 2999 2999 3002 3008 3013 3018 3021 3022 3028 3031 3035 3040 3042 3047 3048 3047 3049 3053 3056 3056 3057 3057 3063 3062 3060 3057 3060 3062 3064 3066 3067 3065 3069 3063
2954 2958 2962 2967 2973 2978 2982 2986 2984 2987 2985 2988 2995 3001 3004 3008 3012 3015 3019 3022 3026 3031 3033 3036 3038 3039 3041 3044 3047 3050 3050 3047 3048 3045 3043 3049 3052 3054 3056 3057 3057 3056 3056 3059
2944 2948 2952 2957 2963 2968 2971 2975 2973 2977 2979 2980 2987 2993 2998 3001 3004 3007 3011 3013 3018 3022 3026 3027 3028 3031 3034 3034 3036 3041 3041 3039 3043 3041 3038 3040 3049 3049 3049 3046 3048 3049 3049 3050
2935 2939 2943 2947 2952 2959 2961 2961 2964 2970 2969 2977 2982 2984 2989 2992 2998 3002 3002 3006 3012 3015 3018 3021 3022 3022 3022 3023 3026 3029 3030 3031 3032 3034 3032 3035 3038 3042 3040 3042 3042 3042 3045 3041
2927 2930 2933 2937 2942 2947 2948 2950 2953 2962 2964 2968 2972 2976 2981 2987 2990 2993 2997 3002 3006 3007 3011 3018 3018 3017 3015 3016 3020 3024 3026 3025 3029 3025 3030 3030 3028 3023 3031 3032 3033 3035 3035 3037
2919 2922 2925 2927 2932 2935 2941 2940 2950 2955 2959 2960 2964 2970 2977 2981 2984 2988 2992 2996 2998 3003 3006 3009 3010 3010 3011 3011 3013 3015 3015 3019 3020 3019 3024 3022 3012 3015 3022 3022 3024 3028 3030 3030
2913 2916 2918 2920 2924 2928 2931 2935 2942 2946 2950 2955 2961 2967 2972 2975 2979 2981 2984 2987 2993 2997 3000 3003 3003 3003 3003 3003 3007 3008 3010 3012 3011 3011 3014 3010 3007 3008 3012 3013 3016 3020 3022 3023
2909 2912 2914 2918 2920 2923 2927 2931 2936 2942 2948 2951 2956 2961 2965 2968 2971 2975 2977 2982 2987 2991 2993 2996 2996 2996 2996 2997 2997 2999 3000 3004 3006 3004 3007 3004 3002 3006 3006 3008 3006 3012 3014 3015
2905 2908 2910 2913 2917 2921 2925 2929 2934 2939 2943 2946 2951 2953 2956 2962 2967 2969 2971 2975 2980 2984 2986 2988 2989 2989 2989 2991 2990 2990 2992 2997 2996 2995 2997 2997 2996 3001 3003 3004 3004 3004 3006 3008
2902 2905 2908 2911 2914 2917 2922 2927 2931 2936 2936 2940 2946 2950 2953 2956 2961 2965 2967 2970 2971 2976 2979 2981 2978 2980 2981 2981 2982 2980 2981 2987 2989 2990 2992 2992 2990 2994 2998 2997 2996 2999 3001 3003
2898 2901 2904 2908 2912 2915 2919 2924 2927 2932 2934 2938 2940 2945 2948 2953 2958 2959 2961 2962 2963 2968 2971 2972 2973 2973 2973 2973 2973 2972 2977 2976 2977 2981 2978 2983 2983 2988 2991 2991 2993 2994 2997 2998
2895 2898 2901 2905 2909 2913 2916 2921 2925 2928 2931 2933 2935 2939 2945 2947 2954 2955 2957 2956 2955 2960 2964 2966 2968 2968 2969 2968 2967 2968 2970 2971 2971 2974 2974 2975 2980 2983 2985 2986 2990 2991 2993 2995
2891 2895 2899 2903 2907 2910 2914 2918 2921 2925 2928 2929 2932 2935 2936 2943 2946 2949 2949 2953 2953 2957 2958 2959 2961 2961 2962 2961 2962 2962 2964 2965 2965 2967 2969 2972 2976 2977 2979 2982 2986 2987 2989 2991
2888 2892 2896 2900 2904 2907 2911 2915 2918 2921 2926 2924 2924 2926 2932 2936 2939 2942 2946 2946 2948 2950 2953 2953 2954 2954 2958 2956 2957 2954 2955 2957 2958 2959 2964 2969 2971 2971 2975 2979 2982 2984 2986 2988
2885 2889 2894 2898 2902 2906 2909 2913 2917 2919 2922 2924 2923 2923 2924 2929 2931 2933 2935 2935 2938 2941 2943 2945 2946 2947 2951 2952 2947 2948 2949 2950 2953 2957 2960 2963 2966 2969 2972 2975 2978 2980 2983 2985
2884 2888 2892 2896 2900 2903 2907 2913 2915 2914 2918 2921 2923 2920 2920 2921 2922 2923 2925 2929 2930 2932 2935 2935 2938 2942 2943 2943 2941 2943 2944 2947 2951 2955 2958 2960 2963 2966 2969 2972 2974 2977 2979 2981
2883 2887 2891 2895 2899 2901 2903 2910 2912 2913 2917 2919 2917 2917 2917 2915 2913 2913 2916 2919 2922 2923 2927 2926 2929 2933 2934 2934 2937 2940 2943 2946 2950 2953 2956 2959 2962 2963 2966 2968 2970 2973 2975 2977
2883 2888 2892 2894 2894 2897 2903 2906 2910 2912 2916 2915 2914 2913 2912 2909 2908 2909 2911 2913 2916 2918 2919 2920 2922 2923 2926 2929 2934 2936 2940 2945 2948 2951 2954 2955 2958 2961 2962 2965 2967 2969 2972 2974
2883 2888 2888 2890 2896 2901 2903 2907 2907 2908 2910 2910 2908 2908 2908 2908 2905 2905 2909 2910 2912 2915 2918 2919 2919 2921 2925 2929 2932 2936 2939 2943 2946 2948 2951 2952 2955 2957 2960 2962 2965 2967 2969 2971
2882 2885 2889 2894 2898 2902 2903 2904 2903 2905 2906 2904 2904 2906 2905 2905 2904 2904 2908 2910 2913 2915 2916 2918 2919 2919 2923 2926 2929 2933 2937 2941 2944 2947 2949 2950 2953 2955 2957 2960 2962 2965 2967 2968
2881 2887 2894 2897 2900 2902 2903 2902 2903 2902 2903 2901 2902 2902 2904 2904 2905 2907 2911 2913 2914 2914 2915 2917 2915 2915 2919 2924 2928 2930 2934 2938 2941 2944 2947 2949 2950 2952 2955 2958 2960 2962 2963 2965
2885 2892 2895 2898 2901 2901 2900 2899 2900 2900 2899 2900 2901 2904 2905 2908 2910 2911 2913 2913 2913 2914 2914 2912 2910 2912 2915 2920 2924 2928 2932 2936 2940 2943 2945 2947 2949 2951 2953 2956 2958 2959 2960 2961
2888 2892 2895 2897 2897 2897 2897 2898 2900 2900 2900 2900 2901 2904 2906 2908 2910 2911 2912 2912 2912 2911 2910 2908 2908 2910 2913 2918 2923 2927 2931 2935 2939 2941 2943 2945 2947 2949 2951 2953 2954 2955 2957 2958
2891 2894 2895 2894 2894 2896 2896 2897 2898 2899 2899 2900 2902 2905 2907 2908 2910 2910 2910 2910 2908 2907 2906 2906 2906 2908 2912 2917 2921 2926 2931 2934 2937 2939 2942 2944 2946 2947 2949 2950 2952 2953 2954 2954
2892 2892 2893 2892 2893 2893 2893 2894 2896 2898 2899 2901 2905 2905 2906 2906 2907 2907 2907 2907 2905 2905 2905 2905 2906 2909 2913 2918 2923 2927 2931 2933 2936 2938 2941 2942 2944 2945 2947 2948 2949 2950 2950 2950
2890 2888 2889 2890 2890 2891 2891 2893 2895 2897 2899 2901 2903 2904 2905 2905 2905 2905 2905 2904 2905 2904 2903 2904 2906 2909 2914 2919 2923 2927 2930 2933 2935 2937 2939 2941 2942 2943 2944 2945 2945 2946 2946 2945